Wind_Speed
17 15 15 16 16 17 18 19 19 19 19 18 19 19 18 19 18 20 20 20 21 20 21 23 25 24 26 27 28 28 30 27 19 20 16 11 8 3 4 2 3 4 6
25 22 18 18 18 17 16 16 17 18 19 19 19 18 18 18 19 19 20 20 21 20 22 22 23 25 26 25 28 28 26 27 22 19 17 12 9 4 3 6 7 10 7
30 26 24 19 19 18 18 18 18 19 19 19 21 20 22 22 22 20 20 19 20 21 22 24 25 24 25 25 26 27 27 29 25 21 17 13 8 4 4 3 4 4 4
32 29 26 20 19 20 20 19 18 19 20 20 21 21 25 25 25 23 23 21 21 22 22 27 27 22 24 24 25 26 23 26 23 20 17 12 9 6 2 1 1 2 4
31 32 32 28 26 22 21 19 19 21 23 25 24 22 21 22 21 23 24 22 21 23 24 28 25 20 21 21 24 26 23 23 23 19 17 12 11 7 4 2 5 6 8
36 35 34 33 32 29 29 27 24 28 27 25 31 28 23 23 24 22 23 24 21 21 22 31 24 17 19 18 19 22 21 20 19 19 15 12 9 8 6 4 7 11 12
23 36 32 37 34 35 29 31 31 25 20 22 16 14 17 20 23 20 21 22 23 22 21 19 25 14 17 15 18 18 20 19 16 16 15 10 8 6 7 7 8 11 10
24 18 13 18 29 34 34 22 19 19 19 23 25 22 24 25 21 21 19 24 26 26 26 25 33 18 16 13 14 15 17 19 16 14 13 10 7 5 5 6 8 8 12
4 7 12 8 8 13 21 18 16 21 19 21 17 19 19 22 21 22 21 28 30 32 29 24 17 19 18 13 11 14 16 15 17 16 14 10 7 5 3 3 8 8 12
12 5 14 8 10 3 9 13 14 15 11 13 12 15 18 22 19 22 28 33 37 38 34 26 29 30 29 14 8 10 13 13 14 14 14 11 7 5 3 3 2 7 7
12 7 5 7 14 14 10 9 9 12 12 15 16 19 20 22 25 26 28 28 29 30 30 25 22 19 22 13 8 6 8 12 12 13 13 12 8 6 4 2 2 3 8
13 13 13 14 15 16 19 17 9 8 8 11 11 13 14 12 18 20 5 10 16 14 25 16 7 17 16 11 7 4 7 10 10 9 11 13 11 7 4 2 1 3 4
15 17 19 21 23 22 21 20 17 13 12 13 14 14 14 11 5 5 1 8 14 12 16 8 11 15 12 9 7 4 6 8 9 9 9 10 10 8 4 2 1 3 4
24 25 26 25 23 24 25 23 21 20 18 19 17 17 14 10 6 4 3 4 6 6 4 5 10 10 12 8 6 5 6 8 10 8 9 8 9 9 6 2 1 3 5
32 31 25 25 27 26 25 25 23 21 23 23 22 22 20 18 15 9 8 8 6 6 7 9 9 12 14 9 8 8 9 9 10 9 7 6 7 8 8 4 1 3 7
29 29 29 28 25 26 26 26 26 24 23 24 26 27 25 21 21 22 22 21 16 13 13 13 13 12 13 14 12 11 13 11 11 11 10 8 8 7 6 5 1 3 6
27 30 30 30 29 24 23 26 27 24 24 25 26 28 30 28 27 28 29 26 24 19 17 16 14 15 17 17 15 16 15 17 14 13 11 10 10 7 6 4 3 2 5
27 30 26 26 25 24 23 22 24 24 22 24 26 28 29 32 32 29 29 26 25 24 22 21 18 18 18 18 19 19 19 21 19 17 12 12 11 9 7 7 3 2 4
24 24 26 25 23 23 23 23 22 23 23 22 25 27 30 32 34 32 31 27 27 26 27 24 23 21 19 19 23 23 20 27 22 19 18 13 12 13 9 9 9 5 4
18 18 19 23 26 26 25 24 21 22 24 24 24 28 28 28 32 32 30 28 27 26 28 27 25 22 21 23 22 26 25 24 22 19 16 15 14 13 12 14 13 10 7
16 18 20 20 24 27 27 28 25 23 24 25 26 26 32 28 31 30 27 26 27 26 25 25 26 25 23 20 19 18 20 22 19 19 19 19 17 16 13 14 14 15 12
15 18 23 24 27 31 30 32 31 28 27 27 27 29 29 33 29 30 28 25 25 25 24 24 23 21 20 19 16 13 13 13 17 16 20 21 18 21 18 18 19 17 16
18 21 24 27 34 29 27 30 35 35 31 29 30 30 28 31 38 30 28 27 25 25 24 23 22 21 20 18 16 13 12 11 16 16 17 16 19 20 16 16 16 18 19
20 22 25 27 30 27 28 29 30 33 33 30 30 31 30 30 32 32 29 27 27 25 23 22 23 25 20 18 16 15 15 15 17 17 17 18 19 21 20 19 16 19 21
21 21 24 27 31 27 27 25 24 27 30 30 29 30 30 30 29 27 27 27 26 26 25 25 25 24 22 20 17 17 18 18 17 17 18 20 21 22 22 22 21 22 24
20 22 23 29 29 29 28 22 19 22 25 28 28 28 27 28 30 28 25 26 28 24 26 27 26 25 24 21 18 18 18 16 16 17 18 18 17 21 21 19 18 18 19
Wind_Direction
246 261 261 256 256 256 258 259 263 267 271 274 279 286 292 296 301 306 310 313 317 322 321 330 338 341 336 333 343 349 343 350 348 348 346 353 359 327 13 77 103 102 107
247 246 260 253 254 252 252 258 262 267 272 277 279 282 285 290 294 300 305 311 313 312 313 326 334 340 336 334 341 350 348 348 3 358 1 13 21 52 75 100 95 102 87
241 245 253 253 249 251 247 249 257 264 269 275 282 289 290 291 293 295 296 301 302 309 311 319 327 337 337 333 342 346 352 347 5 7 8 21 28 73 108 93 95 80 14
244 248 248 253 251 250 249 248 253 263 272 279 286 293 296 294 295 293 291 297 302 308 311 315 328 334 335 334 341 345 355 352 4 17 13 18 32 9 125 133 300 335 349
240 233 235 235 243 249 253 254 257 264 273 282 281 284 287 294 291 290 289 292 300 303 307 311 323 325 331 335 342 344 353 358 360 13 16 16 39 22 343 322 10 13 359
239 234 233 236 239 250 251 259 274 275 278 284 277 277 281 285 285 287 290 292 295 298 300 310 318 324 325 333 340 341 349 358 7 5 25 21 39 51 44 4 24 41 39
258 243 259 279 263 256 251 256 285 264 293 266 275 273 275 290 280 275 284 290 286 287 304 313 310 312 317 328 336 343 350 352 11 16 22 26 45 55 50 27 33 53 65
270 288 281 261 260 260 257 268 256 257 267 252 260 268 285 288 299 284 275 277 284 284 296 309 294 301 308 319 332 337 349 347 9 19 33 32 49 78 56 39 27 43 57
235 239 250 236 253 254 246 248 248 257 255 263 272 275 290 293 284 279 277 275 279 280 288 304 289 303 296 305 324 332 344 349 359 18 31 37 39 59 111 54 48 36 39
212 258 237 243 243 246 246 272 289 279 266 272 275 269 281 292 296 285 282 283 281 274 269 267 274 273 284 288 307 325 337 347 356 11 27 37 38 46 48 106 16 35 31
201 208 242 255 261 289 262 241 249 268 277 278 279 280 285 291 293 293 293 297 298 261 252 246 259 253 253 267 280 307 320 339 357 2 18 35 33 35 47 34 65 52 42
240 252 257 267 271 278 290 294 279 269 275 279 287 295 309 309 303 309 318 351 356 267 220 215 263 230 245 252 264 293 308 333 352 5 15 22 32 37 39 55 75 106 70
264 278 286 287 286 286 283 283 289 280 275 268 271 280 290 298 343 82 356 23 34 156 132 211 239 236 240 249 262 303 289 309 333 4 17 18 17 31 36 18 109 141 145
297 301 300 296 292 287 287 285 278 274 265 258 265 271 256 239 199 171 124 351 4 71 203 227 234 247 244 250 278 281 290 295 315 342 1 4 3 11 28 45 290 158 173
302 303 302 298 294 290 285 281 279 274 266 262 256 251 256 243 239 213 207 268 297 278 256 248 248 258 262 268 280 291 291 291 295 313 332 355 344 355 4 22 177 193 182
293 295 298 300 294 289 282 277 277 275 268 261 256 255 247 245 244 245 245 253 260 260 252 257 257 253 263 266 269 275 282 283 284 288 310 321 328 332 341 351 309 212 189
289 289 291 290 290 286 276 275 271 273 267 261 251 248 252 248 239 249 252 255 256 256 253 253 245 255 258 262 266 271 273 276 277 283 293 301 305 303 308 313 327 263 216
284 287 291 296 295 293 289 278 271 266 263 260 258 250 248 251 252 246 251 251 252 252 247 252 254 253 255 261 264 263 266 268 273 277 278 284 295 285 289 285 269 271 235
284 286 294 298 298 297 296 292 282 274 266 256 256 254 248 248 251 252 253 252 251 250 249 247 252 258 263 266 269 273 274 264 264 259 270 272 273 280 276 269 267 244 239
289 291 295 296 299 298 294 291 287 278 271 264 258 252 255 254 248 250 250 249 250 245 247 246 247 253 260 267 264 262 265 268 271 241 247 250 262 273 267 268 258 255 236
301 302 303 301 298 296 295 289 284 277 266 262 255 258 250 250 258 249 247 246 250 242 238 238 239 241 245 248 253 263 276 265 249 263 252 238 239 257 256 266 266 250 241
310 309 306 304 303 293 287 284 282 275 267 259 255 252 255 243 255 251 246 239 242 237 230 229 230 234 243 247 247 259 267 252 240 242 247 242 241 236 249 265 273 242 237
303 302 313 309 316 305 291 274 263 265 266 262 256 254 256 252 246 251 244 238 238 236 231 230 232 237 239 241 244 252 259 251 242 245 231 232 240 244 252 252 266 235 229
302 303 312 318 322 314 300 285 269 256 256 260 257 255 254 256 253 248 244 229 231 234 234 237 235 240 240 248 255 253 248 243 243 245 235 235 239 239 249 239 249 247 242
313 317 321 324 329 322 317 302 271 252 250 256 260 256 255 253 252 233 229 231 227 232 232 230 234 238 243 250 257 252 241 239 242 243 244 242 242 239 241 244 250 253 232
324 329 333 334 334 329 319 298 277 259 257 258 259 257 255 251 245 229 223 225 231 221 234 234 233 239 246 251 250 242 238 241 243 247 251 248 250 236 242 234 244 244 251
Height
3193 3193 3193 3194 3195 3197 3198 3199 3199 3199 3200 3200 3199 3199 3198 3197 3195 3193 3192 3190 3187 3186 3182 3178 3176 3172 3167 3162 3158 3154 3147 3141 3134 3128 3124 3119 3116 3115 3113 3112 3111 3110 3111
3190 3190 3191 3191 3191 3192 3193 3194 3194 3195 3195 3196 3195 3195 3194 3192 3191 3189 3188 3187 3185 3182 3179 3176 3173 3170 3166 3161 3156 3153 3147 3141 3134 3127 3122 3118 3117 3115 3114 3113 3112 3113 3113
3184 3187 3188 3188 3188 3189 3190 3190 3190 3190 3190 3191 3191 3192 3190 3189 3187 3186 3184 3183 3181 3180 3175 3174 3170 3169 3165 3160 3156 3151 3146 3139 3133 3127 3122 3119 3118 3117 3116 3115 3114 3112 3111
3181 3184 3185 3185 3185 3186 3186 3186 3186 3186 3187 3187 3188 3188 3186 3185 3184 3182 3180 3180 3179 3177 3173 3172 3170 3167 3163 3159 3154 3151 3147 3140 3135 3129 3123 3121 3119 3120 3118 3117 3115 3113 3111
3174 3177 3180 3180 3180 3183 3183 3182 3182 3182 3182 3183 3183 3183 3181 3180 3178 3178 3177 3176 3175 3175 3172 3169 3168 3165 3161 3158 3153 3150 3146 3142 3135 3130 3126 3123 3120 3120 3120 3117 3114 3112 3111
3169 3170 3172 3173 3177 3179 3179 3179 3180 3180 3179 3179 3178 3176 3176 3174 3174 3174 3173 3172 3171 3170 3167 3165 3165 3163 3161 3156 3153 3150 3146 3143 3138 3131 3129 3125 3123 3122 3122 3119 3115 3113 3111
3166 3167 3165 3173 3171 3170 3172 3176 3174 3175 3173 3173 3172 3169 3169 3169 3168 3165 3169 3169 3164 3164 3164 3160 3163 3161 3158 3155 3153 3150 3146 3143 3139 3134 3130 3127 3126 3125 3124 3123 3119 3115 3114
3159 3156 3154 3155 3163 3166 3169 3169 3167 3167 3168 3167 3167 3165 3164 3163 3162 3161 3163 3162 3160 3158 3159 3160 3159 3159 3157 3153 3150 3150 3147 3143 3139 3136 3131 3129 3127 3126 3126 3126 3124 3120 3115
3155 3156 3158 3160 3160 3161 3160 3162 3162 3163 3161 3160 3160 3160 3160 3157 3158 3157 3158 3156 3154 3152 3153 3154 3155 3155 3156 3152 3148 3148 3147 3143 3140 3137 3133 3131 3129 3127 3126 3127 3127 3124 3119
3154 3157 3159 3160 3160 3158 3158 3157 3157 3158 3156 3156 3156 3156 3155 3153 3152 3151 3150 3149 3146 3146 3146 3149 3150 3150 3154 3152 3147 3146 3146 3144 3141 3137 3134 3132 3130 3129 3128 3127 3127 3126 3125
3154 3155 3155 3156 3156 3155 3155 3153 3153 3154 3152 3152 3153 3152 3152 3150 3146 3146 3143 3139 3131 3128 3133 3139 3141 3144 3149 3149 3146 3144 3144 3144 3141 3138 3135 3134 3132 3130 3129 3128 3127 3128 3128
3152 3153 3153 3153 3152 3152 3151 3149 3146 3147 3148 3149 3149 3149 3148 3146 3143 3140 3138 3135 3124 3121 3126 3132 3138 3140 3146 3145 3144 3142 3143 3143 3141 3139 3136 3135 3134 3132 3130 3129 3129 3129 3129
3150 3150 3149 3148 3147 3146 3145 3145 3143 3144 3144 3144 3144 3144 3145 3143 3142 3138 3138 3134 3130 3127 3128 3135 3138 3141 3142 3142 3142 3140 3141 3141 3141 3139 3137 3135 3135 3133 3131 3130 3130 3132 3131
3142 3142 3142 3141 3140 3139 3138 3138 3139 3139 3139 3140 3141 3141 3142 3141 3140 3138 3137 3136 3134 3136 3137 3138 3139 3137 3139 3140 3139 3138 3140 3141 3140 3139 3138 3137 3137 3135 3134 3132 3132 3132 3133
3133 3133 3134 3134 3133 3133 3132 3132 3132 3132 3133 3135 3135 3136 3137 3136 3135 3135 3136 3136 3136 3136 3137 3137 3138 3139 3137 3136 3136 3136 3138 3139 3140 3139 3138 3136 3137 3136 3135 3133 3133 3133 3135
3130 3128 3127 3127 3127 3126 3125 3125 3125 3126 3126 3127 3128 3129 3132 3131 3130 3131 3132 3133 3134 3135 3135 3136 3136 3136 3136 3135 3134 3134 3135 3137 3138 3138 3137 3137 3136 3136 3135 3135 3134 3134 3134
3125 3123 3123 3122 3121 3120 3119 3118 3118 3119 3119 3119 3120 3121 3122 3124 3126 3126 3126 3127 3128 3131 3130 3131 3132 3133 3133 3132 3132 3132 3134 3134 3135 3136 3136 3136 3136 3135 3135 3135 3134 3134 3135
3120 3118 3118 3117 3115 3113 3113 3112 3110 3110 3111 3111 3112 3112 3113 3115 3116 3118 3120 3121 3122 3124 3126 3127 3128 3128 3128 3129 3129 3130 3129 3130 3132 3133 3134 3133 3134 3134 3134 3135 3134 3133 3134
3114 3113 3111 3110 3109 3107 3106 3105 3104 3103 3102 3103 3103 3104 3106 3108 3109 3111 3113 3114 3115 3116 3118 3120 3121 3122 3122 3124 3124 3123 3125 3124 3126 3128 3130 3131 3131 3133 3131 3132 3134 3132 3133
3109 3108 3107 3105 3102 3101 3099 3097 3097 3096 3094 3094 3095 3096 3098 3099 3100 3102 3105 3106 3108 3108 3110 3113 3115 3116 3118 3119 3120 3119 3119 3120 3120 3120 3124 3125 3127 3129 3129 3130 3131 3131 3131
3103 3102 3101 3100 3098 3094 3092 3090 3089 3088 3087 3087 3087 3089 3091 3092 3092 3094 3096 3099 3100 3101 3103 3106 3109 3110 3113 3114 3115 3114 3113 3113 3114 3117 3119 3121 3122 3124 3127 3127 3128 3128 3129
3097 3097 3095 3093 3091 3087 3085 3081 3080 3079 3079 3079 3080 3081 3082 3084 3085 3087 3089 3091 3093 3095 3097 3099 3102 3104 3107 3109 3109 3109 3109 3108 3110 3112 3114 3115 3117 3120 3123 3124 3124 3124 3126
3092 3091 3089 3085 3081 3076 3074 3071 3069 3068 3069 3070 3071 3071 3073 3074 3077 3080 3082 3084 3086 3088 3091 3093 3097 3099 3102 3103 3104 3104 3104 3104 3107 3108 3109 3111 3113 3116 3118 3120 3120 3121 3122
3088 3085 3082 3079 3073 3067 3063 3060 3058 3058 3059 3061 3062 3063 3064 3066 3067 3071 3075 3077 3078 3081 3084 3087 3091 3094 3095 3096 3097 3098 3099 3100 3103 3104 3105 3107 3108 3111 3113 3114 3116 3117 3119
3082 3079 3076 3072 3067 3061 3056 3052 3050 3050 3051 3052 3053 3055 3056 3057 3059 3062 3066 3069 3072 3075 3078 3081 3084 3086 3088 3089 3090 3092 3093 3095 3097 3098 3100 3101 3104 3105 3108 3109 3110 3111 3112
3076 3073 3069 3065 3059 3053 3049 3044 3043 3043 3044 3044 3045 3046 3047 3049 3051 3054 3057 3061 3064 3068 3072 3074 3077 3079 3081 3082 3084 3086 3088 3089 3091 3092 3093 3095 3097 3100 3102 3104 3105 3107 3108